[[{"header":{"parameterUnit":"m.s-1","parameterCategory":1,"la1":30.2991,"la2":30.254,"lo1":-89.0895,"lo2":-89.0444,"dy":0.0017,"dx":0.0017,"nx":28,"ny":28,"refTime":"2025-06-19T03:00:00:Z","depth":0,"parameterNumber":2,"parameterNumberName":"U-component_of_WINDS"},"data":[0,0,0,0,0,0,0,0,0,0,0,0,0,0,0,0,0,0,0,0,0,0,0,0,0,0,0,0,0,0,0,0,0,0,0,0,0,0,0,0,0,0,0,0,0,0,0,0,0,0,0,0,0,0,0,0,0,0,5.0975,5.0977,0,5.1127,5.1129,5.113,5.1065,5.1061,5.1058,5.1054,5.1211,5.1219,5.1226,0,0,0,0,0,0,0,0,0,0,0,0,0,5.0628,5.0635,5.0975,5.0977,5.0979,5.1127,5.1129,5.1131,5.1066,5.1061,5.1057,5.1052,5.1209,5.1218,5.1227,0,0,0,0,0,0,0,0,0,0,0,0,0,5.0779,5.0637,5.0975,5.0964,5.0965,5.1126,5.1129,5.1131,5.1067,5.1061,5.1055,5.105,5.1206,5.1217,5.1228,5.141,0,0,5.1263,5.1268,0,0,0,0,0,0,0,0,5.0771,5.0792,5.0964,5.0965,5.0966,5.1071,5.1064,5.1225,5.1068,5.1028,5.1054,5.1048,5.1169,5.1183,5.1224,5.1417,5.1424,5.1264,5.1271,5.1276,5.1279,0,0,0,0,0,0,0,5.076,5.0785,5.1035,5.0966,5.0968,5.0951,5.0967,5.1094,5.1128,5.1031,5.1027,5.1045,5.1169,5.1213,5.1227,5.1426,5.1264,5.1274,5.1281,5.1286,5.177,5.1776,0,0,0,0,0,0,5.075,5.0777,5.103,5.104,5.0853,5.0962,5.0979,5.1043,5.1126,5.1134,5.105,5.1042,5.1196,5.1214,5.1233,5.1447,5.1276,5.1287,5.1293,5.1764,5.1772,5.1778,0,0,0,0,0,0,5.0743,5.0773,5.1024,5.0907,5.0938,5.0974,5.1046,5.1049,5.1093,5.1141,5.1146,5.1089,5.1193,5.1217,5.1365,5.1451,5.1292,5.1302,5.1757,5.1767,5.1775,5.1879,0,0,0,0,0,0,5.0733,5.0771,5.0841,5.0909,5.0944,5.1155,5.1052,5.1056,5.1113,5.1104,5.1179,5.1186,5.119,5.1348,5.1376,5.1464,5.1311,5.175,5.1761,5.1772,5.1868,5.189,5.1909,0,0,0,0,0,5.0721,5.0865,5.0845,5.0876,5.1032,5.116,5.118,5.1181,5.112,5.119,5.122,5.1184,5.1438,5.1364,5.1395,5.1488,5.1744,5.1758,5.1771,5.1858,5.1886,5.1909,0,0,0,0,0,0,5.0808,5.0874,5.0852,5.1023,5.1086,5.1149,5.1237,5.1211,5.1293,5.1281,5.128,5.1298,5.145,5.1484,5.1401,5.1665,5.1582,5.1602,5.1637,5.1664,5.1684,5.1672,5.1321,0,0,0,0,0,5.0847,5.0945,5.0998,5.1143,5.1176,5.1201,5.1257,5.1252,5.1318,5.1344,5.1385,5.145,5.1544,5.1606,5.1696,5.1873,5.1886,5.1952,5.1972,5.1989,5.2006,5.2098,5.2126,5.1823,5.1823,5.1822,0,0,5.0929,5.0977,5.1039,5.1162,5.121,5.131,5.1224,5.1335,5.1409,5.1361,5.1502,5.1535,5.1607,5.1769,5.1843,5.1802,5.2093,5.2007,5.202,5.2028,5.2115,5.2144,5.2169,5.1832,5.183,5.1829,0,0,5.1128,5.1176,5.13,5.135,5.1423,5.1438,5.1468,5.1534,5.1553,5.1694,5.1659,5.1747,5.191,5.1962,5.2009,5.2224,5.2193,5.2254,5.2362,5.2452,5.2475,5.2497,5.2569,5.2596,5.2271,5.2271,5.2272,0,5.122,5.137,5.1368,5.148,5.1534,5.1494,5.1618,5.1667,5.1766,5.1804,5.1757,5.1957,5.2004,5.2175,5.2227,5.2269,5.23,5.2245,5.2472,5.2493,5.2513,5.2582,5.261,5.2278,5.2277,5.2277,5.2276,0,5.1478,5.1582,5.1674,5.1768,5.1832,5.1951,5.1965,5.2031,5.202,5.204,5.2182,5.2236,5.2333,5.2374,5.2366,5.2544,5.2516,5.2471,5.2386,5.2549,5.2613,5.2641,5.2288,5.2285,5.2283,5.2282,0,0,5.1737,5.1826,5.186,5.19,5.1977,5.2057,5.2172,5.2266,5.232,5.239,5.2484,5.2622,5.2579,5.2633,5.263,5.2709,5.2871,5.2654,5.2656,5.2689,5.3065,5.3096,5.3127,5.2851,5.2856,5.286,5.3058,0,5.1939,5.214,5.214,5.2325,5.2419,5.2381,5.2481,5.2538,5.2559,5.2641,5.2665,5.276,5.2699,5.2731,5.2807,5.2835,5.2946,5.2821,5.2937,5.2941,5.2917,5.3162,5.3196,5.338,5.3084,5.3088,5.3091,0,5.2202,5.2277,5.2471,5.253,5.2569,5.2659,5.2743,5.2823,5.2886,5.2895,5.2954,5.2938,5.3053,5.2966,5.3123,5.3038,5.3086,5.3106,5.3113,5.3122,5.3024,5.3174,5.3439,5.3465,5.3132,5.3129,5.3126,0,5.2367,5.2517,5.2651,5.2687,5.2761,5.2824,5.2857,5.2914,5.2969,5.3043,5.3078,5.3165,5.3212,5.3279,5.3285,5.3222,5.3443,5.3357,5.3451,5.3451,5.3498,5.3494,5.3771,5.3534,5.3534,5.3533,5.3533,0,5.2591,5.271,5.2725,5.2808,5.2939,5.2937,5.3067,5.3095,5.3146,5.3232,5.3205,5.3286,5.3292,5.3375,5.3381,5.3508,5.3531,5.354,5.3539,5.354,5.3539,5.3569,5.3555,5.354,5.3539,5.3537,5.3536,0,5.2796,5.2812,5.2955,5.3011,5.3028,5.3122,5.3169,5.3247,5.3264,5.3373,5.3399,5.3426,5.3522,5.3535,5.3649,5.3652,5.3803,5.3792,5.3782,5.3779,5.387,5.386,5.4174,5.4213,5.3954,5.3957,5.3959,0,5.2937,5.3027,5.3092,5.3147,5.3183,5.3273,5.3327,5.3329,5.3387,5.3463,5.3531,5.3624,5.3698,5.3852,5.3882,5.3967,5.3955,5.4059,5.3967,5.3964,5.3952,5.3945,5.3952,5.4076,5.4079,5.4081,5.4083,0,5.3183,5.3185,5.3265,5.3348,5.3413,5.3479,5.354,5.3587,5.3595,5.3662,5.3758,5.3816,5.3929,5.402,5.4104,5.4137,5.4111,5.4111,5.4137,5.4137,5.4126,5.4129,5.3826,5.4104,5.4102,5.41,5.4099,5.4098,5.3358,5.3435,5.3491,5.358,5.3626,5.3683,5.3757,5.3782,5.3863,5.3954,5.395,5.4055,5.4112,5.4221,5.426,5.4342,5.4307,5.4346,5.4355,5.4363,5.437,5.4115,5.4358,5.4357,5.4356,5.4356,5.4356,0,5.3599,5.3633,5.3715,5.38,5.3869,5.3838,5.3903,5.3963,5.4055,5.4111,5.4183,5.4292,5.4379,5.4415,5.45,5.4558,5.4547,5.458,5.4574,5.4581,5.4398,5.4365,5.4586,5.4586,5.4586,5.4586,5.4586,5.4586,5.3733,5.3859,5.3868,5.4015,5.4048,5.415,5.4189,5.4241,5.4284,5.4406,5.4478,5.45,5.4547,5.4634,5.4712,5.472,5.4751,5.4788,5.479,5.4618,5.4595,5.4572,5.4541,5.4796,5.4796,5.4966,5.4968,5.4969]},{"header":{"parameterUnit":"m.s-1","parameterCategory":1,"la1":30.2991,"la2":30.254,"lo1":-89.0895,"lo2":-89.0444,"dy":0.0017,"dx":0.0017,"nx":28,"ny":28,"refTime":"2025-06-19T03:00:00:Z","depth":0,"parameterNumber":3,"parameterNumberName":"V-component_of_WINDS"},"data":[0,0,0,0,0,0,0,0,0,0,0,0,0,0,0,0,0,0,0,0,0,0,0,0,0,0,0,0,0,0,0,0,0,0,0,0,0,0,0,0,0,0,0,0,0,0,0,0,0,0,0,0,0,0,0,0,0,0,1.9234,1.9234,0,1.9266,1.9266,1.9267,1.9242,1.9241,1.924,1.9239,1.9272,1.9274,1.9276,0,0,0,0,0,0,0,0,0,0,0,0,0,1.9149,1.9151,1.9234,1.9234,1.9234,1.9266,1.9266,1.9267,1.9242,1.9241,1.924,1.9239,1.9272,1.9274,1.9276,0,0,0,0,0,0,0,0,0,0,0,0,0,1.9184,1.9152,1.9234,1.9226,1.9226,1.9266,1.9266,1.9267,1.9243,1.9241,1.9239,1.9238,1.9271,1.9274,1.9276,1.9326,0,0,1.9285,1.9286,0,0,0,0,0,0,0,0,1.9182,1.9187,1.9227,1.9227,1.9226,1.9248,1.9249,1.9287,1.9243,1.9236,1.9239,1.9237,1.9266,1.9269,1.9278,1.9327,1.9328,1.9285,1.9287,1.9288,1.9289,0,0,0,0,0,0,0,1.918,1.9186,1.9246,1.9227,1.9227,1.9221,1.9224,1.9256,1.9259,1.9237,1.9235,1.9239,1.9265,1.9276,1.9279,1.9329,1.9285,1.9288,1.9289,1.929,1.9417,1.9419,0,0,0,0,0,0,1.9178,1.9184,1.9245,1.9247,1.92,1.9223,1.9227,1.9243,1.9259,1.926,1.924,1.9238,1.9272,1.9276,1.928,1.9337,1.9288,1.9291,1.9292,1.9416,1.9418,1.9419,0,0,0,0,0,0,1.9177,1.9184,1.9244,1.9215,1.9222,1.9227,1.9245,1.9244,1.9255,1.9262,1.9262,1.9251,1.9271,1.9276,1.9314,1.9338,1.9292,1.9295,1.9414,1.9416,1.9418,1.9453,0,0,0,0,0,0,1.9174,1.9184,1.9203,1.9216,1.9224,1.9278,1.9246,1.9246,1.926,1.9257,1.9272,1.9272,1.927,1.931,1.9317,1.9341,1.9297,1.9411,1.9415,1.9418,1.945,1.9456,1.9462,0,0,0,0,0,1.9171,1.9212,1.9204,1.9212,1.9248,1.928,1.9284,1.928,1.9262,1.9281,1.9285,1.9272,1.9334,1.9314,1.9321,1.9347,1.941,1.9414,1.9417,1.9447,1.9455,1.9462,0,0,0,0,0,0,1.9202,1.9213,1.9205,1.9251,1.9264,1.9275,1.9299,1.9289,1.9308,1.9305,1.9299,1.9302,1.9342,1.9348,1.9325,1.9394,1.9369,1.9374,1.9389,1.9396,1.9403,1.94,1.9299,0,0,0,0,0,1.9214,1.9239,1.9247,1.9287,1.9294,1.9296,1.9309,1.9305,1.9318,1.9324,1.9331,1.9345,1.9367,1.9382,1.9403,1.945,1.9452,1.9471,1.9477,1.9482,1.9487,1.951,1.9519,1.9432,1.9432,1.9432,0,0,1.924,1.9249,1.9265,1.9293,1.9303,1.9328,1.9301,1.9329,1.9347,1.9328,1.9364,1.937,1.9384,1.9426,1.9445,1.9433,1.9511,1.9487,1.9491,1.9493,1.9515,1.9523,1.9531,1.9434,1.9434,1.9434,0,0,1.9299,1.9309,1.9342,1.9352,1.9367,1.9367,1.9375,1.9387,1.939,1.9425,1.9411,1.9433,1.9472,1.9482,1.9493,1.9553,1.9541,1.956,1.9592,1.9615,1.9622,1.9628,1.9648,1.9656,1.9565,1.9565,1.9565,0,1.9329,1.9366,1.936,1.9389,1.9401,1.9384,1.9417,1.9427,1.9448,1.9457,1.9443,1.949,1.9499,1.9542,1.9557,1.9566,1.9574,1.9559,1.9621,1.9627,1.9633,1.9652,1.966,1.9567,1.9567,1.9566,1.9566,0,1.9401,1.9427,1.9452,1.9472,1.9487,1.9518,1.9515,1.9531,1.9525,1.9526,1.9562,1.9571,1.9593,1.9603,1.9598,1.9645,1.9637,1.9622,1.9597,1.9643,1.9661,1.9669,1.957,1.9569,1.9569,1.9568,0,0,1.9482,1.9496,1.9506,1.9514,1.9528,1.9548,1.9577,1.9597,1.961,1.9625,1.9649,1.9681,1.9667,1.9679,1.9674,1.9694,1.9739,1.9676,1.9677,1.9687,1.979,1.9801,1.981,1.9731,1.9733,1.9734,1.9789,0,1.954,1.9591,1.9586,1.9634,1.9656,1.964,1.9665,1.9676,1.9677,1.9697,1.9698,1.9721,1.9701,1.9708,1.9727,1.973,1.976,1.9726,1.9752,1.9753,1.9749,1.9819,1.9831,1.9882,1.9796,1.9797,1.9798,0,1.9616,1.9632,1.9682,1.9691,1.97,1.9723,1.9741,1.976,1.9771,1.977,1.9783,1.9774,1.9802,1.9776,1.9814,1.979,1.9801,1.9803,1.9805,1.9807,1.9778,1.9822,1.9899,1.9906,1.9809,1.9808,1.9807,0,1.9668,1.9703,1.9737,1.9744,1.9755,1.9771,1.9777,1.9787,1.9799,1.9814,1.9822,1.984,1.985,1.9864,1.986,1.9842,1.9898,1.9872,1.9898,1.9898,1.9911,1.991,1.9989,1.9919,1.9919,1.9918,1.9918,0,1.9734,1.9765,1.976,1.9781,1.9814,1.9807,1.984,1.9844,1.9852,1.9873,1.986,1.9879,1.9873,1.9891,1.9888,1.9919,1.9924,1.9924,1.9923,1.9925,1.9925,1.9931,1.9928,1.992,1.992,1.992,1.9919,0,1.9799,1.9797,1.9832,1.9839,1.9841,1.9866,1.9872,1.9891,1.989,1.9916,1.9922,1.9922,1.9943,1.994,1.9964,1.9962,2.0,1.9995,1.9996,1.9995,2.002,2.0017,2.0106,2.0117,2.004,2.0041,2.0041,0,1.9841,1.9864,1.9873,1.9885,1.9891,1.9912,1.9924,1.9917,1.993,1.9943,1.9961,1.998,1.9996,2.003,2.0032,2.005,2.0044,2.0074,2.0047,2.0048,2.0044,2.0042,2.0044,2.008,2.008,2.0081,2.0082,0,1.9915,1.9912,1.993,1.9946,1.9961,1.9974,1.9985,1.9996,1.999,2.0005,2.0026,2.0038,2.0062,2.0081,2.0097,2.0102,2.0091,2.009,2.0097,2.0099,2.0098,2.0098,2.001,2.0088,2.0088,2.0087,2.0087,2.0086,1.9969,1.9988,1.9996,2.0016,2.0023,2.0034,2.0052,2.0053,2.007,2.0089,2.0084,2.0107,2.0116,2.0136,2.0143,2.0161,2.015,2.016,2.0162,2.0165,2.0167,2.0096,2.0164,2.0164,2.0164,2.0163,2.0163,0,2.0041,2.0045,2.0063,2.0079,2.0094,2.0081,2.0093,2.0106,2.0127,2.0136,2.0151,2.0174,2.0193,2.0195,2.0212,2.0226,2.0221,2.023,2.0229,2.023,2.0177,2.0169,2.0234,2.0234,2.0234,2.0234,2.0234,2.0234,2.008,2.0111,2.0109,2.0143,2.0147,2.017,2.0177,2.0186,2.0193,2.022,2.0235,2.0236,2.0242,2.0259,2.0275,2.0275,2.0281,2.0293,2.0291,2.0241,2.0234,2.0227,2.022,2.0295,2.0295,2.0343,2.0343,2.0343]}]]